,,,PA_Meas_PMT16A,,PR_Meas_QMR101_102,,RH_Meas_QMH101,,SR_Meas_QMS101,,TA_Meas_QMH101,,GenWind,,GenWind,
date,time,status,PA,status,PR,status,RH,status,SR,status,TA,status,DirAvg,status,SpdAvg,
2010-01-23, 00:00:04,VALID,1003.49,VALID,0,VALID,91.4028,VALID,0,VALID,23.9549,VALID,116,VALID,0.952344,
2010-01-23, 00:01:04,VALID,1003.48,VALID,0,VALID,91.4944,VALID,0,VALID,23.9549,VALID,107,VALID,0.855859,
2010-01-23, 00:02:04,VALID,1003.49,VALID,0,VALID,91.4944,VALID,0,VALID,23.9744,VALID,93,VALID,0.491406,
2010-01-23, 00:03:04,VALID,1003.45,VALID,0,VALID,91.5249,VALID,0.112286,VALID,23.9939,VALID,92,VALID,0.591016,
2010-01-23, 00:04:04,VALID,1003.42,VALID,0,VALID,91.5173,VALID,0,VALID,23.9939,VALID,100,VALID,0.480078,
2010-01-23, 00:05:04,VALID,1003.39,VALID,0,VALID,91.4105,VALID,0.112286,VALID,23.9939,VALID,101,VALID,1.03828,
2010-01-23, 00:06:04,VALID,1003.37,VALID,0,VALID,91.3723,VALID,0,VALID,24.0134,VALID,101,VALID,0.525,
2010-01-23, 00:07:04,VALID,1003.37,VALID,0,VALID,91.2808,VALID,0,VALID,24.0311,VALID,98,VALID,0.949609,
2010-01-23, 00:08:04,VALID,1003.31,VALID,0,VALID,90.7467,VALID,0,VALID,24.0525,VALID,110,VALID,1.3543,
2010-01-23, 00:09:04,VALID,1003.32,VALID,0,VALID,90.0143,VALID,0,VALID,24.0915,VALID,111,VALID,0.941406,
2010-01-23, 00:10:04,VALID,1003.31,VALID,0,VALID,89.6862,VALID,0,VALID,24.1092,VALID,101,VALID,0.921094,
2010-01-23, 00:11:04,VALID,1003.26,VALID,0,VALID,88.9461,VALID,0,VALID,24.15,VALID,108,VALID,1.07031,
2010-01-23, 00:12:04,VALID,1003.27,VALID,0,VALID,87.8246,VALID,0,VALID,24.2086,VALID,101,VALID,1.72148,
2010-01-23, 00:13:04,VALID,1003.25,VALID,0,VALID,87.382,VALID,0,VALID,24.2476,VALID,100,VALID,1.49023,
2010-01-23, 00:14:04,VALID,1003.22,VALID,0,VALID,87.2981,VALID,0,VALID,24.2848,VALID,96,VALID,1.23711,
2010-01-23, 00:15:04,VALID,1003.25,VALID,0,VALID,87.1532,VALID,0,VALID,24.3257,VALID,93,VALID,1.25195,
2010-01-23, 00:16:04,VALID,1003.24,VALID,0,VALID,87.1989,VALID,0,VALID,24.3043,VALID,87,VALID,1.49414,
2010-01-23, 00:17:04,VALID,1003.21,VALID,0,VALID,87.2676,VALID,0,VALID,24.3043,VALID,75,VALID,1.61445,
2010-01-23, 00:18:04,VALID,1003.22,VALID,0,VALID,87.3363,VALID,0,VALID,24.3062,VALID,77,VALID,1.66328,
2010-01-23, 00:19:04,VALID,1003.2,VALID,0,VALID,87.4354,VALID,0,VALID,24.2866,VALID,84,VALID,1.43203,
2010-01-23, 00:20:04,VALID,1003.19,VALID,0,VALID,88.0077,VALID,0,VALID,24.2671,VALID,85,VALID,1.0375,
2010-01-23, 00:21:04,VALID,1003.22,VALID,0,VALID,87.9543,VALID,0,VALID,24.2281,VALID,74,VALID,1.97461,
2010-01-23, 00:22:04,VALID,1003.23,VALID,0,VALID,87.6109,VALID,0,VALID,24.15,VALID,82,VALID,2.26094,
2010-01-23, 00:23:04,VALID,1003.24,VALID,0,VALID,88.3129,VALID,0,VALID,24.15,VALID,80,VALID,1.64766,
2010-01-23, 00:24:04,VALID,1003.24,VALID,0,VALID,88.6562,VALID,0,VALID,24.0701,VALID,71,VALID,1.75977,
2010-01-23, 00:25:04,VALID,1003.24,VALID,0.5,VALID,89.1063,VALID,0,VALID,24.0134,VALID,76,VALID,1.59687,
2010-01-23, 00:26:04,VALID,1003.27,VALID,0,VALID,89.5183,VALID,0,VALID,23.9159,VALID,60,VALID,1.56992,
2010-01-23, 00:27:04,VALID,1003.28,VALID,0,VALID,90.0829,VALID,0,VALID,23.8573,VALID,46,VALID,1.92891,
2010-01-23, 00:28:04,VALID,1003.25,VALID,0,VALID,90.6551,VALID,0,VALID,23.7775,VALID,39,VALID,2.75352,
2010-01-23, 00:29:04,VALID,1003.24,VALID,0,VALID,90.9909,VALID,0,VALID,23.7793,VALID,42,VALID,2.34492,
2010-01-23, 00:30:04,VALID,1003.27,VALID,0,VALID,91.0519,VALID,0,VALID,23.7207,VALID,17,VALID,3.2832,
2010-01-23, 00:31:04,VALID,1003.25,VALID,0,VALID,90.9909,VALID,0,VALID,23.6604,VALID,30,VALID,3.21484,
2010-01-23, 00:32:04,VALID,1003.23,VALID,0.5,VALID,91.0748,VALID,0,VALID,23.6799,VALID,43,VALID,2.91953,
2010-01-23, 00:33:04,VALID,1003.24,VALID,0,VALID,91.4563,VALID,0,VALID,23.7579,VALID,27,VALID,1.95391,
2010-01-23, 00:34:04,VALID,1003.19,VALID,0.5,VALID,91.4334,VALID,0,VALID,23.8183,VALID,55,VALID,1.51406,
2010-01-23, 00:35:04,VALID,1003.2,VALID,0,VALID,91.4944,VALID,0,VALID,23.8165,VALID,63,VALID,0.89375,
2010-01-23, 00:36:04,VALID,1003.16,VALID,0,VALID,91.502,VALID,0,VALID,23.7988,VALID,76,VALID,0.405859,
2010-01-23, 00:37:04,VALID,1003.16,VALID,0,VALID,91.7538,VALID,0,VALID,23.7775,VALID,50,VALID,1.13125,
2010-01-23, 00:38:04,VALID,1003.16,VALID,0,VALID,91.7233,VALID,0,VALID,23.7793,VALID,25,VALID,1.78867,
2010-01-23, 00:39:04,VALID,1003.14,VALID,0,VALID,91.6241,VALID,0,VALID,23.7384,VALID,26,VALID,1.45039,
2010-01-23, 00:40:04,VALID,1003.09,VALID,0,VALID,91.586,VALID,0,VALID,23.7207,VALID,19,VALID,1.16367,
2010-01-23, 00:41:04,VALID,1003.06,VALID,0,VALID,91.7004,VALID,0,VALID,23.7207,VALID,32,VALID,1.36016,
2010-01-23, 00:42:04,VALID,1003.04,VALID,0,VALID,91.9293,VALID,0,VALID,23.7189,VALID,66,VALID,2.16367,
2010-01-23, 00:43:04,VALID,1003,VALID,0.5,VALID,91.8454,VALID,0,VALID,23.6994,VALID,59,VALID,2.39531,
2010-01-23, 00:44:04,VALID,1002.93,VALID,0,VALID,91.8911,VALID,0,VALID,23.7012,VALID,66,VALID,2.38203,
2010-01-23, 00:45:04,VALID,1002.92,VALID,0,VALID,91.998,VALID,0,VALID,23.6622,VALID,64,VALID,1.73047,
2010-01-23, 00:46:04,VALID,1002.94,VALID,0,VALID,92.1887,VALID,0,VALID,23.6427,VALID,55,VALID,2.24414,
2010-01-23, 00:47:04,VALID,1002.93,VALID,0,VALID,92.1811,VALID,0,VALID,23.6232,VALID,61,VALID,2.94258,
2010-01-23, 00:48:04,VALID,1002.93,VALID,0.5,VALID,92.2955,VALID,0,VALID,23.5841,VALID,60,VALID,2.41445,
2010-01-23, 00:49:04,VALID,1002.94,VALID,0,VALID,92.41,VALID,0,VALID,23.5841,VALID,55,VALID,2.16133,
2010-01-23, 00:50:04,VALID,1002.94,VALID,0,VALID,92.5244,VALID,0,VALID,23.5646,VALID,54,VALID,2.34883,
2010-01-23, 00:51:04,VALID,1002.91,VALID,0,VALID,92.5854,VALID,0,VALID,23.5433,VALID,60,VALID,2.18281,
2010-01-23, 00:52:04,VALID,1002.9,VALID,0,VALID,92.7304,VALID,0,VALID,23.5646,VALID,51,VALID,1.85781,
2010-01-23, 00:53:04,VALID,1002.89,VALID,0,VALID,92.822,VALID,0,VALID,23.5646,VALID,44,VALID,1.77578,
2010-01-23, 00:54:04,VALID,1002.85,VALID,0,VALID,92.9288,VALID,0,VALID,23.5628,VALID,44,VALID,1.51758,
2010-01-23, 00:55:04,VALID,1002.83,VALID,0.5,VALID,93.1119,VALID,0,VALID,23.6427,VALID,45,VALID,1.12812,
2010-01-23, 00:56:04,VALID,1002.82,VALID,0,VALID,93.0508,VALID,0,VALID,23.6427,VALID,62,VALID,0.93125,
2010-01-23, 00:57:04,VALID,1002.79,VALID,0,VALID,93.0585,VALID,0,VALID,23.6427,VALID,68,VALID,1.22734,
2010-01-23, 00:58:04,VALID,1002.79,VALID,0,VALID,93.0127,VALID,0,VALID,23.5823,VALID,79,VALID,1.50469,
2010-01-23, 00:59:04,VALID,1002.8,VALID,0,VALID,93.0432,VALID,0,VALID,23.5841,VALID,82,VALID,1.37188,
2010-01-23, 01:00:04,VALID,1002.74,VALID,0.5,VALID,93.0737,VALID,0,VALID,23.5841,VALID,89,VALID,1.13906,
2010-01-23, 01:01:04,VALID,1002.71,VALID,0,VALID,93.0814,VALID,0,VALID,23.5841,VALID,110,VALID,1.10586,
2010-01-23, 01:02:04,VALID,1002.7,VALID,0,VALID,93.0814,VALID,0,VALID,23.5238,VALID,113,VALID,0.990625,
2010-01-23, 01:03:04,VALID,1002.67,VALID,0,VALID,93.1271,VALID,0,VALID,23.5646,VALID,110,VALID,0.997266,
2010-01-23, 01:04:04,VALID,1002.62,VALID,0,VALID,93.1805,VALID,0,VALID,23.5841,VALID,107,VALID,0.68125,
2010-01-23, 01:05:04,VALID,1002.57,VALID,0,VALID,93.2187,VALID,0,VALID,23.6036,VALID,110,VALID,0.716016,
2010-01-23, 01:06:04,VALID,1002.56,VALID,0,VALID,93.2263,VALID,0,VALID,23.5841,VALID,123,VALID,0.771875,
2010-01-23, 01:07:04,VALID,1002.53,VALID,0,VALID,93.1577,VALID,0,VALID,23.5628,VALID,126,VALID,1.04766,
2010-01-23, 01:08:04,VALID,1002.51,VALID,0,VALID,93.1805,VALID,0,VALID,23.5841,VALID,135,VALID,1.12812,
2010-01-23, 01:09:04,VALID,1002.49,VALID,0,VALID,93.1653,VALID,0,VALID,23.5433,VALID,147,VALID,0.973047,
2010-01-23, 01:10:04,VALID,1002.48,VALID,0,VALID,93.15,VALID,0,VALID,23.5433,VALID,152,VALID,0.974219,
2010-01-23, 01:11:04,VALID,1002.49,VALID,0,VALID,93.15,VALID,0,VALID,23.5628,VALID,157,VALID,0.833984,
2010-01-23, 01:12:04,VALID,1002.47,VALID,0,VALID,93.0737,VALID,0,VALID,23.5859,VALID,148,VALID,1.17891,
2010-01-23, 01:13:04,VALID,1002.47,VALID,0,VALID,93.0814,VALID,0.112286,VALID,23.5628,VALID,150,VALID,1.15781,
2010-01-23, 01:14:04,VALID,1002.42,VALID,0,VALID,93.0814,VALID,0,VALID,23.6054,VALID,157,VALID,0.942187,
2010-01-23, 01:15:04,VALID,1002.42,VALID,0,VALID,93.0508,VALID,0,VALID,23.5859,VALID,144,VALID,1.2707,
2010-01-23, 01:16:04,VALID,1002.39,VALID,0,VALID,93.028,VALID,0,VALID,23.5859,VALID,124,VALID,0.689453,
2010-01-23, 01:17:04,VALID,1002.41,VALID,0,VALID,93.028,VALID,0,VALID,23.6054,VALID,123,VALID,1.15,
2010-01-23, 01:18:04,VALID,1002.36,VALID,0,VALID,93.028,VALID,0,VALID,23.6054,VALID,114,VALID,1.18438,
2010-01-23, 01:19:04,VALID,1002.35,VALID,0,VALID,93.028,VALID,0,VALID,23.625,VALID,122,VALID,1.28945,
2010-01-23, 01:20:04,VALID,1002.31,VALID,0,VALID,93.0661,VALID,0,VALID,23.625,VALID,107,VALID,1.7,
2010-01-23, 01:21:04,VALID,1002.28,VALID,0,VALID,93.0508,VALID,0,VALID,23.6445,VALID,123,VALID,1.19375,
2010-01-23, 01:22:04,VALID,1002.25,VALID,0,VALID,93.0585,VALID,0,VALID,23.664,VALID,114,VALID,1.59727,
2010-01-23, 01:23:04,VALID,1002.25,VALID,0,VALID,93.0585,VALID,0,VALID,23.6835,VALID,125,VALID,1.49531,
2010-01-23, 01:24:04,VALID,1002.21,VALID,0,VALID,93.0051,VALID,0,VALID,23.6427,VALID,134,VALID,1.36367,
2010-01-23, 01:25:04,VALID,1002.18,VALID,0,VALID,92.9822,VALID,0,VALID,23.6445,VALID,137,VALID,1.50586,
2010-01-23, 01:26:04,VALID,1002.13,VALID,0,VALID,92.9364,VALID,0,VALID,23.664,VALID,145,VALID,1.50977,
2010-01-23, 01:27:04,VALID,1002.09,VALID,0,VALID,92.944,VALID,0,VALID,23.664,VALID,157,VALID,1.31758,
2010-01-23, 01:28:04,VALID,1002.07,VALID,0,VALID,92.9211,VALID,0,VALID,23.6427,VALID,143,VALID,1.94492,
2010-01-23, 01:29:04,VALID,1002.04,VALID,0,VALID,92.8983,VALID,0,VALID,23.6622,VALID,148,VALID,1.96172,
2010-01-23, 01:30:04,VALID,1002.02,VALID,0,VALID,92.9135,VALID,0,VALID,23.6817,VALID,148,VALID,1.67383,
2010-01-23, 01:31:04,VALID,1001.98,VALID,0,VALID,92.8525,VALID,0,VALID,23.6817,VALID,149,VALID,2.10469,
2010-01-23, 01:32:04,VALID,1001.95,VALID,0,VALID,92.738,VALID,0.112286,VALID,23.6604,VALID,142,VALID,1.94414,
2010-01-23, 01:33:04,VALID,1001.95,VALID,0,VALID,92.7304,VALID,0,VALID,23.6817,VALID,139,VALID,1.5418,
2010-01-23, 01:34:04,VALID,1001.93,VALID,0,VALID,92.5702,VALID,0,VALID,23.6622,VALID,130,VALID,2.20391,
2010-01-23, 01:35:04,VALID,1001.9,VALID,0,VALID,92.4405,VALID,0,VALID,23.6214,VALID,132,VALID,1.90859,
2010-01-23, 01:36:04,VALID,1001.91,VALID,0,VALID,92.5015,VALID,0,VALID,23.6427,VALID,134,VALID,0.998047,
2010-01-23, 01:37:04,VALID,1001.91,VALID,0,VALID,92.4252,VALID,0,VALID,23.6214,VALID,133,VALID,1.50508,
2010-01-23, 01:38:04,VALID,1001.89,VALID,0,VALID,92.3871,VALID,0.112286,VALID,23.6427,VALID,148,VALID,1.42461,
2010-01-23, 01:39:04,VALID,1001.89,VALID,0,VALID,92.2955,VALID,0,VALID,23.6427,VALID,140,VALID,1.30156,
2010-01-23, 01:40:04,VALID,1001.9,VALID,0,VALID,92.3031,VALID,0,VALID,23.6427,VALID,146,VALID,0.899219,
2010-01-23, 01:41:04,VALID,1001.85,VALID,0,VALID,92.3337,VALID,0,VALID,23.6427,VALID,176,VALID,1.19687,
2010-01-23, 01:42:04,VALID,1001.88,VALID,0,VALID,92.3108,VALID,0,VALID,23.6817,VALID,151,VALID,0.717188,
2010-01-23, 01:43:04,VALID,1001.83,VALID,0,VALID,92.3794,VALID,0.112286,VALID,23.6604,VALID,166,VALID,0.442187,
2010-01-23, 01:44:04,VALID,1001.83,VALID,0,VALID,92.2574,VALID,0,VALID,23.6622,VALID,184,VALID,0.723828,
2010-01-23, 01:45:04,VALID,1001.83,VALID,0,VALID,92.1963,VALID,0,VALID,23.6835,VALID,176,VALID,0.00195313,
2010-01-23, 01:46:04,VALID,1001.76,VALID,0,VALID,92.1582,VALID,0,VALID,23.6835,VALID,176,VALID,0,
2010-01-23, 01:47:04,VALID,1001.75,VALID,0,VALID,92.1506,VALID,0,VALID,23.6622,VALID,176,VALID,0,
2010-01-23, 01:48:04,VALID,1001.71,VALID,0,VALID,92.1506,VALID,0,VALID,23.703,VALID,176,VALID,0,
2010-01-23, 01:49:04,VALID,1001.69,VALID,0,VALID,92.1811,VALID,0,VALID,23.7225,VALID,176,VALID,0,
2010-01-23, 01:50:04,VALID,1001.67,VALID,0,VALID,92.0514,VALID,0,VALID,23.7225,VALID,176,VALID,0,
2010-01-23, 01:51:04,VALID,1001.62,VALID,0,VALID,92.059,VALID,0,VALID,23.7012,VALID,176,VALID,0,
2010-01-23, 01:52:04,VALID,1001.65,VALID,0,VALID,92.1124,VALID,0,VALID,23.7012,VALID,176,VALID,0,
2010-01-23, 01:53:04,VALID,1001.67,VALID,0,VALID,92.0743,VALID,0,VALID,23.7012,VALID,176,VALID,0,
2010-01-23, 01:54:04,VALID,1001.68,VALID,0,VALID,92.1887,VALID,0,VALID,23.7207,VALID,176,VALID,0,
2010-01-23, 01:55:04,VALID,1001.7,VALID,0,VALID,92.1277,VALID,0,VALID,23.7012,VALID,176,VALID,0,
2010-01-23, 01:56:04,VALID,1001.68,VALID,0,VALID,91.9369,VALID,0,VALID,23.6817,VALID,176,VALID,0,
2010-01-23, 01:57:04,VALID,1001.72,VALID,0,VALID,91.8911,VALID,0,VALID,23.703,VALID,176,VALID,0,
2010-01-23, 01:58:04,VALID,1001.71,VALID,0,VALID,92.0743,VALID,0,VALID,23.6817,VALID,176,VALID,0,
2010-01-23, 01:59:04,VALID,1001.72,VALID,0,VALID,92.2268,VALID,0.112286,VALID,23.6994,VALID,36,VALID,0,
2010-01-23, 02:00:04,VALID,1001.75,VALID,0,VALID,92.3184,VALID,0,VALID,23.6994,VALID,24,VALID,0,
2010-01-23, 02:01:04,VALID,1001.74,VALID,0,VALID,92.3794,VALID,0.112286,VALID,23.7189,VALID,13,VALID,0,
2010-01-23, 02:02:04,VALID,1001.75,VALID,0,VALID,92.4023,VALID,0,VALID,23.6994,VALID,13,VALID,0,
2010-01-23, 02:03:04,VALID,1001.74,VALID,0,VALID,92.4939,VALID,0.112286,VALID,23.6994,VALID,13,VALID,0,
2010-01-23, 02:04:04,VALID,1001.75,VALID,0,VALID,92.5168,VALID,0.112286,VALID,23.6994,VALID,13,VALID,0,
2010-01-23, 02:05:04,VALID,1001.72,VALID,0,VALID,92.5168,VALID,0,VALID,23.6994,VALID,13,VALID,0,
2010-01-23, 02:06:04,VALID,1001.75,VALID,0,VALID,92.5168,VALID,0,VALID,23.7012,VALID,13,VALID,0,
2010-01-23, 02:07:04,VALID,1001.76,VALID,0,VALID,92.5397,VALID,0,VALID,23.6799,VALID,13,VALID,0,
2010-01-23, 02:08:04,VALID,1001.74,VALID,0,VALID,92.6007,VALID,0,VALID,23.6799,VALID,13,VALID,0,
2010-01-23, 02:09:04,VALID,1001.75,VALID,0,VALID,92.677,VALID,0.112286,VALID,23.7207,VALID,13,VALID,0,
2010-01-23, 02:10:04,VALID,1001.7,VALID,0,VALID,92.6846,VALID,0,VALID,23.6994,VALID,13,VALID,0,
2010-01-23, 02:11:04,VALID,1001.72,VALID,0,VALID,92.6999,VALID,0.112286,VALID,23.7207,VALID,13,VALID,0,
2010-01-23, 02:12:04,VALID,1001.68,VALID,0,VALID,92.6999,VALID,0.112286,VALID,23.6994,VALID,13,VALID,0,
2010-01-23, 02:13:04,VALID,1001.65,VALID,0,VALID,92.7151,VALID,0,VALID,23.6799,VALID,13,VALID,0,
2010-01-23, 02:14:04,VALID,1001.63,VALID,0,VALID,92.7151,VALID,0.112286,VALID,23.6994,VALID,13,VALID,0,
2010-01-23, 02:15:04,VALID,1001.62,VALID,0,VALID,92.7304,VALID,0,VALID,23.6994,VALID,13,VALID,0,
2010-01-23, 02:16:04,VALID,1001.61,VALID,0,VALID,92.7228,VALID,0,VALID,23.6799,VALID,13,VALID,0,
2010-01-23, 02:17:04,VALID,1001.59,VALID,0,VALID,92.7228,VALID,0,VALID,23.7012,VALID,13,VALID,0,
2010-01-23, 02:18:04,VALID,1001.58,VALID,0,VALID,92.7228,VALID,0.112286,VALID,23.6604,VALID,13,VALID,0,
2010-01-23, 02:19:04,VALID,1001.55,VALID,0,VALID,92.6617,VALID,0,VALID,23.6409,VALID,13,VALID,0,
2010-01-23, 02:20:04,VALID,1001.55,VALID,0,VALID,92.6694,VALID,0,VALID,23.6214,VALID,13,VALID,0,
2010-01-23, 02:21:04,VALID,1001.51,VALID,0,VALID,92.677,VALID,0,VALID,23.6409,VALID,13,VALID,0,
2010-01-23, 02:22:04,VALID,1001.52,VALID,0,VALID,92.677,VALID,0,VALID,23.6427,VALID,13,VALID,0,
2010-01-23, 02:23:04,VALID,1001.49,VALID,0,VALID,92.6999,VALID,0,VALID,23.6409,VALID,13,VALID,0,
2010-01-23, 02:24:04,VALID,1001.47,VALID,0,VALID,92.6923,VALID,0,VALID,23.6817,VALID,13,VALID,0,
2010-01-23, 02:25:04,VALID,1001.49,VALID,0,VALID,92.7304,VALID,0,VALID,23.6604,VALID,13,VALID,0,
2010-01-23, 02:26:04,VALID,1001.48,VALID,0,VALID,92.7228,VALID,0,VALID,23.6799,VALID,13,VALID,0,
2010-01-23, 02:27:04,VALID,1001.46,VALID,0,VALID,92.7685,VALID,0,VALID,23.7207,VALID,13,VALID,0,
2010-01-23, 02:28:04,VALID,1001.47,VALID,0,VALID,92.6312,VALID,0.112286,VALID,23.6604,VALID,13,VALID,0,
2010-01-23, 02:29:04,VALID,1001.45,VALID,0,VALID,92.6541,VALID,0,VALID,23.6835,VALID,13,VALID,0,
2010-01-23, 02:30:04,VALID,1001.43,VALID,0,VALID,92.6388,VALID,0,VALID,23.6835,VALID,13,VALID,0,
2010-01-23, 02:31:04,VALID,1001.45,VALID,0,VALID,92.6236,VALID,0,VALID,23.6622,VALID,13,VALID,0,
2010-01-23, 02:32:04,VALID,1001.43,VALID,0,VALID,92.6465,VALID,0,VALID,23.703,VALID,13,VALID,0,
2010-01-23, 02:33:04,VALID,1001.48,VALID,0,VALID,92.6617,VALID,0,VALID,23.703,VALID,13,VALID,0,
2010-01-23, 02:34:04,VALID,1001.48,VALID,0,VALID,92.6999,VALID,0,VALID,23.703,VALID,13,VALID,0,
2010-01-23, 02:35:04,VALID,1001.48,VALID,0,VALID,92.7228,VALID,0,VALID,23.703,VALID,13,VALID,0,
2010-01-23, 02:36:04,VALID,1001.47,VALID,0,VALID,92.7304,VALID,0,VALID,23.7012,VALID,13,VALID,0,
2010-01-23, 02:37:04,VALID,1001.47,VALID,0,VALID,92.7151,VALID,0,VALID,23.7225,VALID,13,VALID,0,
2010-01-23, 02:38:04,VALID,1001.47,VALID,0,VALID,92.7457,VALID,0,VALID,23.7012,VALID,13,VALID,0,
2010-01-23, 02:39:04,VALID,1001.47,VALID,0,VALID,92.6617,VALID,0,VALID,23.6817,VALID,275,VALID,0,
2010-01-23, 02:40:04,VALID,1001.46,VALID,0,VALID,92.6236,VALID,0,VALID,23.7225,VALID,245,VALID,0,
2010-01-23, 02:41:04,VALID,1001.48,VALID,0,VALID,92.6312,VALID,0,VALID,23.7616,VALID,228,VALID,0,
2010-01-23, 02:42:04,VALID,1001.47,VALID,0,VALID,92.5702,VALID,0,VALID,23.742,VALID,228,VALID,0,
2010-01-23, 02:43:04,VALID,1001.5,VALID,0,VALID,92.4176,VALID,0,VALID,23.7012,VALID,228,VALID,0,
2010-01-23, 02:44:04,VALID,1001.5,VALID,0,VALID,92.3413,VALID,0,VALID,23.7225,VALID,228,VALID,0,
2010-01-23, 02:45:04,VALID,1001.5,VALID,0,VALID,92.3108,VALID,0,VALID,23.7012,VALID,228,VALID,0,
2010-01-23, 02:46:04,VALID,1001.52,VALID,0,VALID,92.2879,VALID,0,VALID,23.7012,VALID,228,VALID,0,
2010-01-23, 02:47:04,VALID,1001.52,VALID,0,VALID,92.3031,VALID,0,VALID,23.7207,VALID,228,VALID,0,
2010-01-23, 02:48:04,VALID,1001.5,VALID,0,VALID,92.3337,VALID,0,VALID,23.7207,VALID,228,VALID,0,
2010-01-23, 02:49:04,VALID,1001.48,VALID,0,VALID,92.3413,VALID,0,VALID,23.7402,VALID,228,VALID,0,
2010-01-23, 02:50:04,VALID,1001.46,VALID,0,VALID,92.3184,VALID,0,VALID,23.7207,VALID,228,VALID,0,
2010-01-23, 02:51:04,VALID,1001.47,VALID,0,VALID,92.2726,VALID,0,VALID,23.7207,VALID,228,VALID,0,
2010-01-23, 02:52:04,VALID,1001.45,VALID,0,VALID,92.2497,VALID,0,VALID,23.7225,VALID,227,VALID,0,
2010-01-23, 02:53:04,VALID,1001.47,VALID,0,VALID,92.2192,VALID,0,VALID,23.6817,VALID,181,VALID,0,
2010-01-23, 02:54:04,VALID,1001.49,VALID,0,VALID,92.2879,VALID,0,VALID,23.703,VALID,172,VALID,0,
2010-01-23, 02:55:04,VALID,1001.48,VALID,0,VALID,92.3566,VALID,0,VALID,23.6835,VALID,164,VALID,0,
2010-01-23, 02:56:04,VALID,1001.48,VALID,0,VALID,92.4023,VALID,0,VALID,23.6817,VALID,162,VALID,0,
2010-01-23, 02:57:04,VALID,1001.44,VALID,0,VALID,92.4176,VALID,0,VALID,23.6835,VALID,162,VALID,0,
2010-01-23, 02:58:04,VALID,1001.48,VALID,0,VALID,92.4481,VALID,0,VALID,23.6622,VALID,162,VALID,0,
2010-01-23, 02:59:04,VALID,1001.47,VALID,0,VALID,92.5015,VALID,0,VALID,23.664,VALID,162,VALID,0,
2010-01-23, 03:00:04,VALID,1001.44,VALID,0,VALID,92.5168,VALID,0,VALID,23.6427,VALID,162,VALID,0,
2010-01-23, 03:01:04,VALID,1001.39,VALID,0,VALID,92.4939,VALID,0,VALID,23.664,VALID,162,VALID,0,
2010-01-23, 03:02:04,VALID,1001.36,VALID,0,VALID,92.4634,VALID,0,VALID,23.625,VALID,162,VALID,0,
2010-01-23, 03:03:04,VALID,1001.32,VALID,0,VALID,92.5091,VALID,0,VALID,23.625,VALID,162,VALID,0,
2010-01-23, 03:04:04,VALID,1001.3,VALID,0,VALID,92.532,VALID,0,VALID,23.6445,VALID,162,VALID,0,
2010-01-23, 03:05:04,VALID,1001.33,VALID,0,VALID,92.5168,VALID,0,VALID,23.625,VALID,162,VALID,0,
2010-01-23, 03:06:04,VALID,1001.31,VALID,0,VALID,92.4939,VALID,0,VALID,23.625,VALID,152,VALID,0,
2010-01-23, 03:07:04,VALID,1001.33,VALID,0,VALID,92.5244,VALID,0,VALID,23.5841,VALID,152,VALID,0,
2010-01-23, 03:08:04,VALID,1001.3,VALID,0,VALID,92.5397,VALID,0,VALID,23.5646,VALID,152,VALID,0,
2010-01-23, 03:09:04,VALID,1001.31,VALID,0,VALID,92.5626,VALID,0,VALID,23.5841,VALID,152,VALID,0,
2010-01-23, 03:10:04,VALID,1001.3,VALID,0,VALID,92.5778,VALID,0,VALID,23.5664,VALID,152,VALID,0,
2010-01-23, 03:11:04,VALID,1001.3,VALID,0,VALID,92.6236,VALID,0,VALID,23.5451,VALID,152,VALID,0,
2010-01-23, 03:12:04,VALID,1001.26,VALID,0,VALID,92.6999,VALID,0,VALID,23.5646,VALID,152,VALID,0,
2010-01-23, 03:13:04,VALID,1001.26,VALID,0,VALID,92.738,VALID,0,VALID,23.5664,VALID,152,VALID,0,
2010-01-23, 03:14:04,VALID,1001.25,VALID,0,VALID,92.7304,VALID,0,VALID,23.5256,VALID,152,VALID,0,
2010-01-23, 03:15:04,VALID,1001.23,VALID,0,VALID,92.6846,VALID,0,VALID,23.5274,VALID,152,VALID,0,
2010-01-23, 03:16:04,VALID,1001.21,VALID,0,VALID,92.7685,VALID,0,VALID,23.5061,VALID,152,VALID,0,
2010-01-23, 03:17:04,VALID,1001.18,VALID,0,VALID,92.7914,VALID,0,VALID,23.5274,VALID,152,VALID,0,
2010-01-23, 03:18:04,VALID,1001.21,VALID,0,VALID,92.8143,VALID,0,VALID,23.5061,VALID,152,VALID,0,
2010-01-23, 03:19:04,VALID,1001.17,VALID,0,VALID,92.8601,VALID,0,VALID,23.5274,VALID,152,VALID,0,
2010-01-23, 03:20:04,VALID,1001.16,VALID,0,VALID,92.9211,VALID,0,VALID,23.5469,VALID,152,VALID,0,
2010-01-23, 03:21:04,VALID,1001.19,VALID,0,VALID,92.8754,VALID,0,VALID,23.5061,VALID,102,VALID,0,
2010-01-23, 03:22:04,VALID,1001.19,VALID,0,VALID,92.9059,VALID,0,VALID,23.5061,VALID,102,VALID,0,
2010-01-23, 03:23:04,VALID,1001.19,VALID,0,VALID,92.9364,VALID,0,VALID,23.5274,VALID,102,VALID,0,
2010-01-23, 03:24:04,VALID,1001.17,VALID,0,VALID,92.8754,VALID,0,VALID,23.4866,VALID,102,VALID,0,
2010-01-23, 03:25:04,VALID,1001.15,VALID,0,VALID,92.8601,VALID,0,VALID,23.4688,VALID,102,VALID,0,
2010-01-23, 03:26:04,VALID,1001.2,VALID,0,VALID,92.8296,VALID,0,VALID,23.4085,VALID,102,VALID,0,
2010-01-23, 03:27:04,VALID,1001.18,VALID,0,VALID,92.9517,VALID,0,VALID,23.4103,VALID,102,VALID,0,
2010-01-23, 03:28:04,VALID,1001.19,VALID,0,VALID,93.0432,VALID,0,VALID,23.4085,VALID,102,VALID,0,
2010-01-23, 03:29:04,VALID,1001.15,VALID,0,VALID,93.0585,VALID,0,VALID,23.4067,VALID,102,VALID,0,
2010-01-23, 03:30:04,VALID,1001.18,VALID,0,VALID,93.1653,VALID,0,VALID,23.4263,VALID,102,VALID,0,
2010-01-23, 03:31:04,VALID,1001.2,VALID,0,VALID,93.2111,VALID,0,VALID,23.4475,VALID,102,VALID,0,
2010-01-23, 03:32:04,VALID,1001.2,VALID,0,VALID,93.2568,VALID,0,VALID,23.4866,VALID,102,VALID,0,
2010-01-23, 03:33:05,VALID,1001.17,VALID,0,VALID,93.2416,VALID,0,VALID,23.4653,VALID,64,VALID,0,
2010-01-23, 03:34:05,VALID,1001.17,VALID,0,VALID,93.2034,VALID,0,VALID,23.4671,VALID,61,VALID,0,
2010-01-23, 03:35:05,VALID,1001.22,VALID,0,VALID,93.1958,VALID,0,VALID,23.428,VALID,61,VALID,0,
2010-01-23, 03:36:05,VALID,1001.22,VALID,0,VALID,93.1348,VALID,0,VALID,23.3677,VALID,52,VALID,0,
2010-01-23, 03:37:05,VALID,1001.25,VALID,0,VALID,93.0203,VALID,0,VALID,23.3305,VALID,43,VALID,0,
2010-01-23, 03:38:05,VALID,1001.25,VALID,0,VALID,92.9745,VALID,0,VALID,23.2312,VALID,37,VALID,1.37617,
2010-01-23, 03:39:05,VALID,1001.28,VALID,0,VALID,93.0814,VALID,0,VALID,23.2117,VALID,36,VALID,1.60703,
2010-01-23, 03:40:05,VALID,1001.28,VALID,0,VALID,93.1348,VALID,0,VALID,23.2134,VALID,41,VALID,1.46055,
2010-01-23, 03:41:05,VALID,1001.28,VALID,0,VALID,93.2416,VALID,0,VALID,23.1939,VALID,41,VALID,1.40508,
2010-01-23, 03:42:05,VALID,1001.28,VALID,0,VALID,93.295,VALID,0,VALID,23.1921,VALID,45,VALID,1.31289,
2010-01-23, 03:43:05,VALID,1001.31,VALID,0,VALID,93.3789,VALID,0.112286,VALID,23.2329,VALID,42,VALID,1.17227,
2010-01-23, 03:44:05,VALID,1001.28,VALID,0,VALID,93.4094,VALID,0,VALID,23.2117,VALID,51,VALID,0.961719,
2010-01-23, 03:45:05,VALID,1001.27,VALID,0,VALID,93.4171,VALID,0,VALID,23.2117,VALID,48,VALID,0.939453,
2010-01-23, 03:46:05,VALID,1001.26,VALID,0,VALID,93.4323,VALID,0,VALID,23.2117,VALID,48,VALID,0.737891,
2010-01-23, 03:47:05,VALID,1001.29,VALID,0,VALID,93.4094,VALID,0,VALID,23.1921,VALID,47,VALID,0.542969,
2010-01-23, 03:48:05,VALID,1001.32,VALID,0,VALID,93.4171,VALID,0,VALID,23.1921,VALID,47,VALID,0.155078,
2010-01-23, 03:49:05,VALID,1001.29,VALID,0,VALID,93.4018,VALID,0,VALID,23.1726,VALID,47,VALID,0.123438,
2010-01-23, 03:50:05,VALID,1001.27,VALID,0,VALID,93.356,VALID,0,VALID,23.1336,VALID,47,VALID,0.0265625,
2010-01-23, 03:51:05,VALID,1001.27,VALID,0,VALID,93.3637,VALID,0.112286,VALID,23.1141,VALID,47,VALID,0.148438,
2010-01-23, 03:52:05,VALID,1001.24,VALID,0,VALID,93.3484,VALID,0,VALID,23.0946,VALID,47,VALID,0,